Location: Clarks Summit,Pa.
(41.5000°N, 75.6000°W)
Time: 15:39:52
(UTC-04:00)

Tiangong 2 - Visible Passes

Search period start: 18 June 2019 00:00
Search period end: 28 June 2019 00:00
Orbit: 376 x 389 km, 42.8° (Epoch: 18 June)

Date Brightness Start Highest point End Pass type
(mag) Time Alt. Az. Time Alt. Az. Time Alt. Az.
24 Jun 3.5 04:13:26 10° S 04:14:48 12° SE 04:16:11 10° ESE visible
25 Jun 2.1 04:48:00 10° SW 04:50:53 34° SSE 04:53:48 10° E visible
26 Jun 2.7 03:50:16 19° SSE 03:50:49 20° SSE 03:53:15 10° E visible
27 Jun 1.3 04:24:46 17° SW 04:27:01 53° SSE 04:30:06 10° E visible
